Currently 67°F in Riverside (Canyon Crest), California, USA
67°F
69°F / 53°F
8 mph W
0.08"
Tuesday, May 5, 2026 3:21 PM PDT

Riverside (Canyon Crest), California Weather Summary
Last 36 Hours

Temperature Winds Hourly Humidity Dewpoint
Time Report Norm Report Norm Max Gusts Precip. Rpt. Norm Rpt. Norm Pressure
1Tue 03:21 PM  66.8°F  77°F  8 mph W  6 mph  14 mph  0.00"  48%  49%  46°F  55°F  29.99"
Tue 03:00 PM  65.7°F  77°F  6 mph W  6 mph  16 mph  0.00"  49%  49%  45°F  55°F  30.00"
2Tue 02:06 PM  68.9°F  76°F  8 mph W  5 mph  12 mph  ----  46%  50%  46°F  55°F  30.01"
Tue 02:00 PM  68.4°F  76°F  5 mph SE  5 mph  12 mph  0.00"  44%  50%  45°F  55°F  30.01"
Tue 01:00 PM  66.2°F  74°F  7 mph W  4 mph  14 mph  0.00"  50%  52%  46°F  55°F  30.02"
Tue 12:00 PM  63.3°F  72°F  2 mph S  4 mph  10 mph  0.00"  55%  57%  46°F  55°F  30.03"
Tue 11:00 AM  60.0°F  69°F  2 mph NW  3 mph  9 mph  0.00"  67%  62%  49°F  55°F  30.04"
Tue 10:00 AM  59.9°F  66°F  6 mph W  3 mph  10 mph  0.00"  73%  69%  51°F  55°F  30.03"
Tue 09:00 AM  56.9°F  63°F  3 mph SW  2 mph  8 mph  0.00"  86%  76%  53°F  55°F  30.02"
Tue 08:00 AM  54.8°F  60°F  2 mph W  2 mph  4 mph  0.00"  97%  82%  54°F  54°F  30.01"
Tue 07:00 AM  53.8°F  57°F  1 mph S  2 mph  7 mph  0.01"  98%  85%  53°F  53°F  30.00"
3Tue 06:07 AM  53.3°F  57°F  2 mph W  1 mph  7 mph  ----  98%  86%  53°F  52°F  29.99"
Tue 06:00 AM  53.5°F  57°F  4 mph W  1 mph  10 mph  0.05"  98%  86%  53°F  52°F  29.99"
Tue 05:00 AM  54.9°F  57°F  3 mph W  1 mph  4 mph  0.00"  96%  86%  54°F  53°F  29.98"
Tue 04:00 AM  54.8°F  57°F  calm  1 mph  4 mph  0.01"  95%  85%  53°F  53°F  29.99"
Tue 03:00 AM  55.2°F  58°F  calm  1 mph  1 mph  0.00"  90%  84%  52°F  53°F  29.99"
Tue 02:00 AM  54.9°F  59°F  calm  1 mph  2 mph  0.00"  92%  83%  53°F  53°F  30.01"
Tue 01:00 AM  55.1°F  60°F  calm  2 mph  3 mph  0.01"  93%  82%  53°F  54°F  30.03"
Tue 12:00 AM  56.9°F  61°F  2 mph SW  1 mph  7 mph  0.00"  82%  79%  51°F  54°F  30.03"
Mon 11:00 PM  57.3°F  62°F  4 mph W  1 mph  11 mph  0.00"  77%  78%  50°F  54°F  30.03"
Mon 10:00 PM  57.6°F  63°F  7 mph W  1 mph  12 mph  0.00"  76%  74%  50°F  55°F  30.03"
Mon 09:00 PM  58.6°F  65°F  6 mph NW  2 mph  14 mph  0.00"  71%  70%  49°F  55°F  30.03"
Mon 08:00 PM  60.0°F  67°F  8 mph W  3 mph  13 mph  0.00"  68%  65%  49°F  55°F  30.01"
Mon 07:00 PM  62.4°F  70°F  5 mph SW  4 mph  14 mph  0.00"  59%  59%  47°F  55°F  30.01"
Mon 06:00 PM  63.6°F  73°F  6 mph W  6 mph  18 mph  0.00"  58%  55%  48°F  55°F  30.01"
Mon 05:00 PM  65.5°F  75°F  11 mph W  6 mph  17 mph  0.00"  51%  52%  46°F  55°F  30.01"
Mon 04:00 PM  66.0°F  76°F  9 mph W  6 mph  14 mph  0.00"  49%  50%  46°F  55°F  30.00"
Mon 03:00 PM  67.8°F  77°F  10 mph W  6 mph  14 mph  0.00"  46%  48%  46°F  55°F  30.03"
Mon 02:00 PM  67.6°F  76°F  4 mph SW  5 mph  14 mph  0.00"  47%  49%  46°F  55°F  30.05"
Mon 01:00 PM  65.0°F  74°F  4 mph W  4 mph  12 mph  0.00"  49%  52%  44°F  55°F  30.06"
Mon 12:00 PM  63.5°F  72°F  calm  4 mph  10 mph  0.00"  54%  56%  46°F  55°F  30.06"
Mon 11:00 AM  62.6°F  69°F  4 mph SW  3 mph  9 mph  0.00"  55%  62%  46°F  55°F  30.07"
Mon 10:00 AM  60.7°F  66°F  1 mph SW  3 mph  9 mph  0.00"  64%  68%  48°F  55°F  30.06"
Mon 09:00 AM  59.1°F  63°F  calm  2 mph  7 mph  0.00"  67%  75%  48°F  55°F  30.06"
Mon 08:00 AM  57.6°F  60°F  3 mph W  2 mph  6 mph  0.00"  75%  81%  49°F  54°F  30.05"
Mon 07:00 AM  55.2°F  57°F  1 mph W  2 mph  none  0.00"  81%  84%  49°F  52°F  30.05"
Mon 06:00 AM  54.7°F  57°F  calm  1 mph  2 mph  0.00"  81%  85%  49°F  52°F  30.04"
Mon 05:00 AM  54.9°F  57°F  calm  1 mph  none  0.00"  80%  84%  49°F  52°F  30.03"
Mon 04:00 AM  55.7°F  58°F  calm  2 mph  6 mph  0.00"  76%  84%  48°F  53°F  30.03"

  1. Current weather data. No green row appears if the current weather data is also the high or low for the current day.
  2. High temperature for the current day.
  3. Low temperature for the current day.

The Riverside (Canyon Crest), California weather pages are a service of WeatherCurrents.
Copyright ©Tue May 05 15:22:08 PDT 2026  WeatherCurrents. All rights reserved. - Submit questions and comments - Privacy Policy

This page automatically refreshes every 10 minutes.